Aérodrome :
LOGIN :

S'inscrire | Disclaimer

   EN    FR    IT 

 










Légende :    VFR   VFR Marginal   IFR   IFR Intensif   IFR Très Intensif
Visi : 
Plafond : 
>= 8 km
>= 3000ft
5 à 8 km
1000 à 3000 ft
1500m à 5 km
500 à 1000 ft
800 à 1500m
200 à 500 ft
< 800m
< 200 ft
Symboles :   Orages  Brouillard  Fortes neiges  Fortes précipitations  Vent > 20 kt
SIGMETs :   Divers  Orages  Givrage  Turbulence  Onde Orograph.  Cendres Volcan.







- Altitude de l'aérodrome : 479 ft
- Code IATA : DOL
- Voir les cartes d'approche


LFRG - Deauville

DERNIER METAR :
  • 102330Z AUTO 32003KT 290V350 9999 FEW024 06/04 Q1028

METARs EXPIRÉS :
  • 102300Z AUTO VRB02KT 9999 BKN024 BKN030 06/04 Q1028
  • 102230Z AUTO 29003KT CAVOK 06/04 Q1028
  • 102200Z AUTO 30003KT CAVOK 06/04 Q1028
  • 102130Z AUTO 32003KT CAVOK 06/03 Q1028
  • 102100Z AUTO 29003KT 260V320 CAVOK 06/03 Q1028 NOSIG

TAF TAF LFRG
Valide du 10 à 15h jusqu'au 11 à 00h UTC


101400Z 1015/1024 31013KT 9999 BKN030
BECMG 1019/1021 35005KT
ATIS : +33 2 31 65 65 36
Pas de NOTAMs connus pour ce terrain.



MET'MAP, la Météo Aéronautique d'un coup d'oeil ! - Copyright ORBIFLY Décembre 2007 - Disclaimer

ORBIFLY MET'MAP TEAM :

Programmation & Développement : Alexandra Zaïnal
Conception & Développement : Baudouin d'Aumeries
Co-Programmation & Développement : Marc-Olivier Méhu
Soutien technique & logistique : Manuel Goepfert

Contact : metmap@orbifly.com




SOURCES & CREDITS :

   NOAA